NOAA 16 DEB

Satellite information

Favourite Embed

Satellite Type and Status

DEBRISIN ORBIT

Key statistics

Satellite NOAA 16 DEB at a glance.

Uptime

9055

Days in orbit

Revolutions

≈ 14.7

Per day

Orbit

SSO

Sun Synchronous Orbit

Inclination

98.9

Latest

Satellite identification and parameters

Extended collection of information and parameters for NOAA 16 DEB.

Object identification

Identified? True

Debris? True

Object name: NOAA 16 DEB

International designator: 2000-055TX

Object number (NORAD): 42427

Object ID (CCSDS): 42427

Country: UNITED STATES OF AMERICA (US)

Current information (Y/N): Y

RCS size: SMALL

Orbital parameters

Period: 97.827 minutes

Inclination: 98.9043 deg

SMA: 7032.895 km

Apoapsis: 681.598 km

Periapsis: 627.923 km

RAAN: 55.1107 deg

Eccentricy: 0.003816

Argument of periapsis: 215.2622 deg

Mean anomaly: 144.6057 deg

Mean motion: 14.71978751 rev/day

Mean motion (dot): 0.00010366 rev/day2

B* drag term: 0.0016409 1/REarth

Two-line elements (TLE)

Creation date: July 4, 2025, 6:39 p.m.

Reference frame: TEME

Reference center: EARTH

Epoch: July 2, 2025, 9:36 p.m. UTC

TLE line 0: 0 NOAA 16 DEB

TLE line 1: 1 42427U 00055TX 25183.90000268 .00010366 00000-0 16409-2 0 9991

TLE line 2: 2 42427 98.9043 55.1107 0038160 215.2622 144.6057 14.71978751466206

Live tracking on map

Real-time ground track for satellite NOAA 16 DEB.

In-orbit conjunctions

A list of the most updated potential collisions computed for object NOAA 16 DEB.

Target Orbit TCA Probability of collision Miss distance Type
COSMOS 2251 DEB LEO 2024-11-10 06:03:41 0.0003759598 186.0 (m) DEBRIS
CZ-6A DEB SSO 2024-07-10 07:22:33 0.0002248413 51.0 (m) DEBRIS

Associated space launch

The NOAA K, L and M POES satellites begin the fifth generation of improved environmental monitoring in support of NOAA missions. The instrument payload has significant improvements and additions/deletions. The instrument changes have effected the spacecraft subsystems and data formats.

NOAA 16 DEB was lifted into orbit during the mission ‘Titan II SLV | NOAA 16’, on board a Titan II SLV space rocket.

The launch took place on Sept. 21, 2000, 10:22 a.m. from Space Launch Complex 4W.

For more information about the launch, click the button.

Launch to space Titan II SLV | NOAA 16
Titan II SLV | NOAA 16

Agency: N/A

Status: Launch Successful

Launch date: Sept. 21, 2000, 10:22 a.m. UTC

Rocket: Titan II SLV

Launch pad: Space Launch Complex 4W

Location: Vandenberg SFB, CA, USA

...

Latest news about this satellite

There are no fresh news available about this satellite. Check back as we update our databases every day.


Newsletter sign-up

Weekly statistics, charts and insights to help you stay on top of the space industry.